Location: G�migny
(47.9646°N, 1.6950°E)
Time: 21:55:23
(UTC+00:00)

USA 116 - Pass Details

Date: 23 October 2019
Orbit: 405 x 834 km, 97.9° (Epoch: 18 November)

Event Time Altitude Azimuth Distance (km) Brightness Sun altitude
Rises 18:30:17 0° 12° (NNE) 2,388 6.9 -17.3°
Reaches altitude 10° 18:32:13 10° 12° (NNE) 1,547 5.9 -17.6°
Maximum altitude 18:35:30 81° 286° (WNW) 471 3.4 -18.2°
Drops below altitude 10° 18:39:05 10° 198° (SSW) 1,687 6.4 -18.8°
Sets 18:41:16 0° 197° (SSW) 2,630 7.4 -19.2°
